Wind_Speed
43 42 41 40 39 38 37 37 37 36 35 34 34 33 33 32 32 32 32 33 33 32 33 33 33 33 33 33 32 33 33 33 34 34 35 36 37 37 38 38 38 39 39
43 42 41 41 40 39 38 37 37 37 36 36 35 34 34 34 33 33 33 33 33 33 33 34 34 34 34 34 34 34 35 35 36 37 37 38 39 39 39 39 39 40 40
43 42 42 41 40 39 38 38 38 38 37 37 36 35 35 35 34 34 34 34 34 34 34 35 35 36 36 36 36 36 37 37 38 39 40 40 40 40 40 41 41 42 42
44 43 42 42 41 40 39 39 39 39 38 37 37 37 36 35 35 35 35 35 35 35 35 36 36 37 37 37 38 38 39 40 40 40 41 42 42 43 42 43 44 44 44
44 43 43 42 42 41 40 39 39 39 39 39 38 37 37 37 36 36 36 36 36 36 37 38 38 38 39 39 39 40 41 41 41 42 42 43 43 44 45 45 45 45 46
45 44 44 43 42 42 41 41 40 40 40 39 39 38 38 37 38 37 37 37 37 38 38 39 39 40 40 40 41 41 42 42 42 43 43 44 45 46 47 47 47 48 48
45 45 45 44 43 42 42 41 41 40 40 40 39 39 38 38 38 38 38 39 39 40 40 40 41 41 41 42 42 42 43 43 44 44 45 46 46 47 48 50 50 51 51
45 45 45 44 44 43 43 42 41 41 41 41 40 40 40 40 39 39 40 40 40 41 41 41 42 42 43 43 43 44 44 45 45 45 46 47 47 48 49 51 52 52 53
44 44 45 44 44 43 43 42 42 42 42 42 42 41 41 41 41 41 41 41 42 42 43 43 43 44 44 45 45 45 45 46 47 47 48 48 48 49 50 51 53 54 54
44 44 44 44 43 43 43 43 43 43 43 42 42 42 43 43 43 43 43 43 43 43 44 44 44 45 45 46 46 46 47 47 48 48 49 50 50 51 51 53 53 54 54
43 43 43 43 43 43 43 44 44 44 44 44 44 43 44 44 45 45 45 44 44 45 45 45 46 46 47 47 47 47 48 48 49 49 50 51 52 52 52 53 53 53 54
42 42 43 43 43 43 43 44 44 44 44 45 45 45 45 45 46 46 46 46 46 45 45 46 46 47 47 47 47 48 48 49 49 50 51 51 52 53 53 53 53 53 53
42 42 43 43 43 43 44 43 44 44 45 45 46 46 46 46 46 46 46 47 47 46 46 46 47 47 47 48 48 48 48 49 50 51 51 51 52 52 53 53 53 52 51
41 42 42 42 43 44 44 44 44 44 44 45 45 46 46 47 47 47 47 47 47 47 47 47 47 48 48 48 49 49 49 50 50 51 51 51 51 52 52 52 52 51 50
40 41 42 42 43 43 44 45 44 44 44 45 45 45 46 46 46 47 47 47 47 47 47 47 48 48 49 49 49 50 51 51 51 51 50 50 51 51 51 50 50 51 51
39 40 41 41 42 43 43 44 44 44 44 44 44 44 44 44 45 45 46 46 47 47 48 48 48 49 49 50 50 51 51 52 51 50 50 50 50 50 50 50 50 50 51
38 39 40 41 41 42 42 43 43 44 44 44 44 43 44 44 45 46 46 47 47 48 48 48 49 49 50 50 50 51 51 51 50 50 50 49 50 50 50 50 51 51 52
37 38 39 40 41 42 42 43 44 44 44 44 44 44 44 45 45 46 46 47 48 48 49 49 49 49 50 51 51 51 50 49 49 50 50 50 49 49 50 51 50 50 50
38 39 39 40 42 43 43 44 44 45 45 45 45 45 45 46 46 46 46 47 48 48 48 49 49 49 49 50 50 50 49 49 49 49 49 49 50 50 51 50 50 49 49
39 40 40 41 42 43 44 44 44 45 45 45 45 46 46 46 47 46 47 47 47 48 48 49 49 50 49 49 49 49 49 49 49 49 49 49 50 50 50 49 49 48 48
39 40 41 41 41 42 43 43 43 44 44 45 45 45 45 45 46 46 46 46 46 47 48 48 49 49 49 48 48 48 48 48 48 48 48 49 49 49 48 48 47 47 47
39 40 40 40 40 41 41 42 42 43 43 44 44 44 44 44 45 46 46 45 46 46 47 47 47 47 46 46 47 47 46 46 46 47 47 47 46 46 46 46 45 45 46
38 39 40 40 39 40 41 41 42 42 42 42 42 43 43 43 43 44 44 45 46 46 46 46 45 44 45 45 45 45 45 45 45 45 45 45 45 45 45 44 44 45 45
36 37 38 39 40 40 40 41 41 41 41 42 42 42 43 43 44 44 44 45 45 45 45 44 44 44 44 45 44 43 44 44 43 43 43 44 44 44 44 44 43 44 44
35 36 38 39 39 40 40 40 40 41 42 42 42 42 42 42 43 43 44 44 45 45 44 43 42 42 43 42 43 43 42 42 42 42 42 42 42 42 43 43 43 43 42
35 36 37 37 37 38 39 39 39 40 40 40 41 41 41 42 42 42 42 42 42 42 42 42 41 41 41 41 41 40 40 40 40 40 40 40 41 42 42 42 41 41 41
Wind_Direction
229 230 231 233 234 236 237 239 239 240 242 244 247 249 251 254 255 257 260 261 262 263 263 264 265 267 268 269 271 273 274 276 278 279 281 282 283 283 284 285 286 286 287
229 230 231 233 234 235 237 238 240 240 242 244 246 249 252 253 255 257 260 261 262 263 264 265 266 267 268 269 271 273 275 276 278 279 280 282 282 283 284 285 285 286 287
228 230 231 233 234 235 237 238 239 240 242 244 246 248 251 252 255 258 260 262 263 264 265 266 266 268 269 270 272 274 275 277 278 280 281 282 283 283 284 285 286 286 287
229 230 231 232 234 236 237 238 239 241 242 244 246 248 250 253 255 258 259 261 263 264 265 266 267 268 269 271 273 275 276 277 279 281 282 283 284 284 284 286 286 287 288
229 231 232 233 234 236 238 239 240 242 243 245 247 249 251 253 255 258 260 261 263 265 266 267 268 269 270 271 273 275 277 278 279 281 283 283 284 285 286 287 287 288 289
230 231 233 234 236 237 239 240 241 242 244 246 248 250 252 254 256 258 260 261 263 265 266 267 268 270 271 272 274 275 276 278 279 280 282 284 285 286 286 287 287 288 289
231 232 233 235 236 238 240 241 242 243 244 246 248 250 252 254 256 258 260 262 264 265 266 268 269 271 272 273 274 276 277 278 278 280 282 284 286 287 288 288 288 289 290
231 232 233 235 236 238 239 241 242 243 245 247 249 251 253 255 256 258 261 262 264 266 267 268 270 271 273 274 275 276 277 278 279 281 283 284 286 287 288 288 289 290 290
233 234 234 235 236 237 239 241 242 244 246 247 249 251 253 255 257 259 261 263 265 266 268 269 271 272 274 275 275 276 277 279 281 282 283 285 285 287 288 289 289 290 291
233 234 234 235 237 238 239 240 242 245 246 248 250 252 254 256 258 261 262 264 265 267 268 270 271 272 273 275 276 276 278 280 282 283 284 285 286 287 289 289 289 290 291
233 234 236 236 237 238 240 241 244 246 248 250 252 254 256 258 259 261 263 265 266 267 269 270 271 272 274 275 276 278 279 280 282 284 285 286 286 287 288 289 289 290 291
233 234 235 236 238 240 241 243 245 247 249 252 254 255 257 259 260 262 264 265 267 268 269 270 271 273 274 275 277 278 279 281 282 284 285 286 287 288 288 288 289 291 292
234 235 236 237 238 240 242 244 247 248 251 252 254 256 257 259 261 263 264 265 266 268 270 271 272 273 274 276 277 278 280 281 283 285 285 286 287 288 288 288 289 290 291
235 235 236 238 239 241 243 245 248 250 252 253 255 256 258 260 262 263 265 266 267 268 270 271 272 273 274 275 277 278 280 282 284 285 285 286 287 287 288 289 289 289 290
237 237 238 239 240 241 243 246 248 250 252 254 256 257 259 261 262 264 265 266 267 269 270 272 272 273 274 276 277 278 280 282 284 285 285 286 287 287 288 288 288 289 289
238 238 239 240 241 242 244 246 248 250 252 254 256 258 260 262 263 264 266 267 268 269 270 272 273 274 275 276 278 279 280 282 283 284 285 286 287 286 287 287 288 290 291
239 239 240 240 241 242 244 246 248 250 252 255 257 259 261 263 264 265 266 268 269 269 271 272 273 274 275 276 278 279 281 282 282 284 285 286 286 286 286 287 288 290 291
238 238 239 240 241 243 245 247 249 251 253 255 257 259 261 263 265 266 267 268 269 270 271 272 274 275 275 277 278 279 281 281 282 284 285 286 286 286 286 287 288 290 291
239 240 241 242 243 244 246 248 250 252 254 256 258 259 261 263 265 266 268 269 270 271 272 273 274 275 276 277 278 279 279 280 282 284 285 285 285 286 287 288 289 289 290
242 242 243 244 244 246 247 250 251 253 255 256 258 260 262 264 265 266 268 270 271 271 272 273 274 275 276 277 277 278 279 280 282 283 284 285 286 287 288 288 289 290 290
243 243 244 245 247 248 248 250 252 253 255 257 258 260 262 264 266 267 269 271 272 273 273 274 275 276 276 277 277 278 279 280 281 282 283 285 286 287 287 289 290 290 291
246 247 247 247 248 249 250 251 252 254 256 258 259 261 263 265 267 269 270 272 273 274 275 276 276 276 276 276 277 278 280 280 281 282 283 285 286 287 288 289 290 290 291
246 247 248 248 249 250 251 251 253 255 256 258 260 262 263 265 268 269 271 273 274 275 276 276 275 275 274 275 276 278 279 280 282 283 284 285 286 286 288 289 290 291 292
245 246 248 248 249 250 251 252 254 255 255 258 260 262 264 266 268 270 272 273 274 275 275 275 274 273 273 275 276 277 279 280 282 283 284 285 286 287 288 289 290 291 292
245 246 247 248 249 250 251 253 255 256 258 260 262 263 266 267 269 271 272 274 275 275 275 274 273 273 274 275 275 276 277 279 280 281 283 284 285 287 288 290 291 291 293
249 250 249 249 250 252 254 255 257 258 260 261 263 265 266 268 270 272 273 275 276 275 275 273 273 274 275 274 275 276 278 279 280 280 282 284 286 287 289 290 291 292 293
Height
5765 5770 5774 5779 5782 5786 5790 5793 5796 5799 5801 5804 5806 5808 5809 5810 5812 5812 5813 5813 5814 5814 5814 5815 5815 5815 5815 5814 5814 5813 5812 5811 5810 5809 5808 5806 5804 5802 5800 5797 5795 5793 5791
5757 5762 5766 5771 5775 5779 5782 5785 5788 5791 5794 5796 5798 5800 5802 5803 5804 5805 5806 5806 5806 5807 5807 5807 5807 5807 5807 5807 5806 5806 5805 5804 5802 5801 5799 5798 5797 5794 5792 5789 5787 5784 5782
5749 5754 5758 5763 5767 5771 5774 5777 5780 5783 5786 5789 5791 5793 5794 5795 5797 5798 5799 5799 5799 5799 5799 5799 5799 5799 5799 5799 5798 5797 5796 5795 5794 5792 5791 5789 5787 5785 5783 5780 5778 5775 5773
5741 5746 5750 5754 5759 5762 5766 5769 5772 5775 5778 5780 5782 5784 5786 5788 5789 5790 5791 5791 5791 5791 5791 5791 5791 5791 5791 5790 5790 5789 5788 5786 5785 5783 5781 5779 5777 5775 5773 5771 5768 5765 5762
5732 5737 5742 5746 5750 5754 5757 5761 5764 5767 5769 5772 5774 5776 5778 5779 5781 5782 5782 5783 5783 5783 5783 5783 5783 5782 5782 5781 5781 5780 5778 5777 5775 5774 5771 5769 5767 5764 5762 5760 5758 5755 5752
5724 5728 5733 5737 5741 5745 5749 5752 5755 5758 5761 5763 5765 5768 5770 5771 5772 5773 5774 5774 5774 5774 5774 5774 5774 5773 5773 5772 5771 5770 5769 5767 5766 5764 5761 5759 5757 5754 5751 5748 5746 5744 5741
5715 5719 5724 5728 5732 5737 5740 5744 5747 5750 5752 5754 5757 5759 5761 5762 5763 5764 5765 5765 5766 5765 5765 5765 5765 5764 5764 5763 5761 5760 5759 5757 5755 5754 5751 5748 5746 5742 5739 5736 5734 5731 5729
5705 5710 5715 5719 5724 5728 5731 5735 5738 5741 5743 5746 5748 5750 5752 5753 5754 5755 5756 5756 5756 5756 5756 5755 5755 5754 5753 5752 5751 5750 5748 5747 5745 5743 5740 5738 5734 5731 5727 5724 5721 5718 5716
5696 5701 5705 5710 5714 5718 5722 5725 5728 5731 5734 5736 5738 5740 5742 5743 5745 5746 5746 5746 5746 5746 5746 5745 5745 5744 5743 5742 5741 5739 5738 5736 5734 5732 5729 5726 5723 5720 5716 5712 5708 5705 5702
5687 5691 5696 5701 5705 5709 5712 5716 5719 5722 5724 5727 5729 5731 5732 5734 5735 5736 5736 5736 5736 5736 5736 5735 5734 5733 5732 5731 5730 5728 5727 5725 5723 5720 5718 5715 5711 5708 5704 5700 5696 5691 5688
5677 5682 5687 5691 5696 5699 5703 5706 5709 5712 5714 5717 5719 5721 5722 5724 5724 5725 5726 5726 5726 5725 5725 5724 5723 5722 5721 5720 5719 5717 5716 5714 5711 5708 5706 5702 5699 5695 5691 5687 5683 5679 5674
5668 5673 5677 5682 5686 5690 5693 5696 5699 5702 5704 5707 5708 5710 5712 5713 5714 5715 5715 5715 5715 5714 5714 5713 5712 5711 5710 5709 5708 5706 5704 5702 5699 5696 5693 5690 5686 5682 5679 5675 5671 5667 5662
5659 5664 5668 5672 5676 5680 5683 5686 5689 5692 5694 5696 5698 5699 5701 5702 5703 5704 5704 5704 5703 5703 5702 5701 5701 5700 5699 5697 5696 5694 5692 5690 5687 5684 5681 5677 5674 5670 5666 5662 5658 5654 5650
5650 5654 5658 5662 5666 5669 5673 5676 5679 5681 5683 5685 5687 5688 5690 5691 5691 5692 5692 5692 5692 5692 5691 5690 5689 5688 5687 5685 5684 5682 5680 5678 5675 5671 5668 5665 5661 5657 5653 5649 5646 5642 5638
5641 5645 5649 5652 5656 5659 5663 5666 5668 5671 5673 5675 5676 5677 5678 5679 5680 5680 5681 5680 5680 5680 5679 5679 5678 5676 5675 5674 5672 5670 5668 5665 5662 5659 5656 5652 5648 5644 5641 5637 5633 5630 5626
5632 5635 5639 5642 5646 5649 5652 5655 5658 5660 5662 5664 5665 5666 5667 5668 5668 5669 5669 5669 5669 5668 5668 5667 5666 5665 5663 5662 5660 5657 5655 5653 5650 5647 5643 5640 5636 5632 5629 5625 5621 5617 5613
5622 5626 5629 5632 5636 5639 5642 5645 5647 5649 5651 5653 5654 5655 5656 5657 5657 5657 5657 5657 5657 5656 5656 5655 5654 5653 5651 5649 5647 5645 5643 5640 5637 5634 5631 5628 5624 5620 5617 5613 5609 5605 5600
5612 5616 5619 5622 5626 5629 5631 5634 5636 5639 5640 5642 5643 5644 5645 5645 5646 5646 5646 5645 5645 5644 5644 5643 5642 5640 5639 5637 5635 5632 5630 5628 5625 5622 5619 5615 5612 5608 5604 5601 5597 5593 5589
5603 5606 5609 5612 5615 5618 5621 5623 5626 5628 5629 5631 5632 5633 5634 5634 5634 5634 5634 5633 5633 5632 5631 5630 5629 5628 5626 5624 5622 5620 5618 5615 5612 5609 5606 5602 5599 5596 5592 5588 5585 5581 5577
5593 5596 5599 5602 5605 5608 5610 5613 5615 5617 5618 5619 5620 5621 5622 5622 5622 5622 5622 5621 5621 5620 5619 5618 5616 5615 5613 5611 5609 5607 5605 5603 5600 5597 5594 5590 5587 5583 5579 5575 5572 5568 5564
5583 5586 5589 5592 5594 5597 5599 5602 5604 5605 5607 5608 5609 5610 5610 5611 5611 5610 5610 5609 5608 5607 5606 5605 5603 5602 5600 5598 5596 5594 5592 5589 5587 5584 5581 5578 5574 5570 5566 5563 5559 5556 5552
5573 5575 5578 5581 5584 5586 5588 5591 5592 5594 5595 5596 5597 5598 5598 5599 5599 5599 5598 5597 5596 5595 5593 5592 5590 5588 5587 5585 5583 5581 5579 5576 5574 5572 5569 5566 5562 5558 5555 5551 5548 5544 5540
5562 5565 5568 5570 5573 5575 5577 5579 5581 5582 5583 5585 5585 5586 5587 5587 5587 5586 5585 5585 5583 5582 5580 5579 5577 5576 5574 5572 5571 5569 5566 5564 5562 5559 5556 5553 5550 5546 5543 5540 5536 5532 5529
5551 5554 5557 5559 5562 5564 5566 5568 5569 5571 5572 5573 5574 5574 5575 5575 5575 5574 5573 5572 5571 5569 5568 5566 5565 5563 5562 5560 5558 5557 5555 5552 5550 5547 5545 5541 5538 5535 5532 5528 5525 5521 5517
5541 5543 5546 5549 5551 5553 5555 5557 5558 5559 5561 5561 5562 5562 5563 5563 5562 5561 5560 5559 5558 5556 5555 5554 5552 5551 5550 5548 5546 5544 5543 5541 5538 5536 5533 5531 5527 5524 5521 5517 5513 5509 5505
5531 5533 5536 5538 5540 5542 5544 5545 5547 5548 5549 5550 5550 5550 5551 5550 5550 5549 5548 5546 5545 5544 5542 5541 5540 5539 5538 5536 5534 5532 5531 5529 5527 5524 5522 5519 5517 5513 5510 5506 5502 5499 5495